Flag Weather past 2 weeks in Lódz, Poland

Now
40 °F

Fog.


Feels Like: 40 °F
Forecast: 40 / 50 °F
Wind: 1 mph from East

Location: Lodz

Current Time: Nov 1, 2014 at 12:30:44 AM

Latest Report: Oct 31, 2014 at 11:00 PM


Visibility: 3 mi

Pressure: 30.34 "Hg

Humidity: 90%

Dew point: 38 °F

Location of LódzLocation

Historic Weather in Lódz — Graph

°F

Lódz temperature yesterday

Maximum temperature yesterday: 47 °F (at 1:00 PM)
Minimum temperature yesterday: 40 °F (at 11:00 PM)
Average temperature yesterday: 43 °F

Past Weeks' High & Low Weather Summary

 TemperatureHumidityPressure
High65 °F (Oct 19, 2:00 PM)100% (Oct 27, 12:00 AM)30.48 "Hg (Oct 27, 12:00 AM)
Low26 °F (Oct 29, 6:00 AM)35% (Oct 29, 2:00 PM)29.53 "Hg (Oct 22, 6:00 AM)
Average45 °F86%30.15 "Hg
* Reported Midnight between Oct 16 and Oct 17 — Oct 31 11:00 PM, Lódz, Weather by CustomWeather, © 2014

Note: Actual official high and low records may vary slightly from our data, if they occured in-between our weather recording intervals... More about our weather records

Advertising

Lódz weather history for previous 24 hours

 ConditionsComfort  
Time TempWeatherWind HumidityBarometerVisibility
11:00 PM
Oct 31
40 °FFog.1 mph90%30.34 "Hg3 mi
10:00 PM41 °FFog.1 mph90%30.34 "Hg3 mi
9:00 PM41 °FFog.2 mph89%30.35 "Hg2 mi
8:00 PM40 °FFog.2 mph92%30.34 "Hg3 mi
7:00 PM42 °FFog.2 mph86%30.35 "Hg4 mi
6:00 PM43 °FFog.1 mph87%30.35 "Hg6 mi
5:00 PM44 °FOvercast.No wind81%30.35 "Hg6 mi
4:00 PM44 °FOvercast.1 mph80%30.35 "Hg9 mi
3:00 PM46 °FPartly sunny.2 mph73%30.35 "Hg11 mi
2:00 PM47 °FScattered clouds.N/A70%30.36 "Hg11 mi
1:00 PM47 °FScattered clouds.N/A68%30.37 "Hg9 mi
12:00 PM45 °FOvercast.1 mph77%30.39 "Hg6 mi
11:00 AM44 °FOvercast.N/A81%30.39 "Hg9 mi
10:00 AM43 °FOvercast.2 mph83%30.39 "Hg7 mi
9:00 AM42 °FLow clouds.N/A94%30.38 "Hg4 mi
8:00 AM42 °FDrizzle. Low clouds.1 mph96%30.38 "Hg2 mi
7:00 AM41 °FDrizzle. Low clouds.1 mph97%30.38 "Hg2 mi
6:00 AM41 °FDrizzle. Low clouds.2 mph97%30.36 "Hg3 mi
5:00 AM41 °FFog.2 mph95%30.36 "Hg4 mi
4:00 AM42 °FLow clouds.2 mph96%30.36 "Hg4 mi
3:00 AM42 °FDrizzle. Low clouds.2 mph97%30.35 "Hg2 mi
2:00 AM42 °FDrizzle. Low clouds.1 mph97%30.34 "Hg2 mi
1:00 AM43 °FDrizzle. Low clouds.1 mph97%30.36 "Hg3 mi
12:00 AM43 °FLow clouds.2 mph96%30.36 "Hg3 mi
Weather by CustomWeather, © 2014

See weather overviewHow to use our weather pages